Regional Weather Roundup
Issued by NWS Albany, NY

Home | Current Version | Previous Version | Text Only | Print | Product List | Glossary On
Versions: 1 2 3 4 5 6 7 8 9 10 11 12 13 14 15 16 17 18 19 20 21 22 23 24 25 26 27 28 29 30 31 32 33 34 35 36 37 38 39 40 41 42 43 44 45 46 47 48 49
000
ASUS41 KALY 260510
RWRALY

NEW YORK STATE HOURLY WEATHER ROUNDUP
NATIONAL WEATHER SERVICE ALBANY NY
1200 AM EST FRI DEC 26 2014

NOTE: "FAIR" INDICATES FEW OR NO CLOUDS BELOW 12,000 FEET WITH NO
SIGNIFICANT WEATHER AND/OR NO OBSTRUCTIONS TO VISIBILITY.

NYZ032-033-038>043-046>054-057>066-NYZ062>081-260600-
EAST


CITY           SKY/WX    TMP DP  RH WIND       PRES   REMARKS
ALBANY         CLOUDY    42  27  55 W13       30.09R
GLENS FALLS    CLOUDY    42  28  57 W7        30.03R
POUGHKEEPSIE   CLEAR     41  28  60 W7        30.07R
NEWBURGH       MOCLDY    41  30  65 CALM      30.09R
MONTGOMERY     CLEAR     42  27  55 W6        30.08R
WHITE PLAINS   CLEAR     42  28  57 W9        30.07R
ISLIP          PTCLDY    41  30  65 SW7       30.08R
NEW YORK CITY  CLEAR     45  28  51 W12       30.11R
CENTRAL PARK   CLEAR     45  28  51 MISG      30.14R
$$

NYZ005>009-017-018-044>046-055-056-260600-
CENTRAL


CITY           SKY/WX    TMP DP  RH WIND       PRES   REMARKS
FULTON         CLOUDY    41  30  65 W12       30.11R
SYRACUSE       CLOUDY    41  31  67 W12       30.11R
ROME           CLOUDY    39  30  70 W8        30.11R WCI  33
ELMIRA         CLOUDY    39  28  64 W7        30.12S WCI  34
BINGHAMTON     CLOUDY    36  27  69 W9        30.08S WCI  29
MONTICELLO     CLOUDY    37  28  70 NW13G18   30.08R WCI  29
$$

NYZ026>034-041>043-260600-
NORTH


CITY           SKY/WX    TMP DP  RH WIND       PRES   REMARKS
WATERTOWN      CLOUDY    41  30  65 W18G26    30.07R
FORT DRUM      NOT AVBL
MASSENA        CLOUDY    40  28  62 SW18G26   29.99R WCI  31
SARANAC LAKE   CLOUDY    34  26  72 W9G25     29.94R WCI  27
PLATTSBURGH    CLOUDY    42  26  53 W6G18     29.95R
$$

NYZ001>004-010>016-019>021-260600-
WEST


CITY           SKY/WX    TMP DP  RH WIND       PRES   REMARKS
NIAGARA FALLS  CLOUDY    38  30  73 W16       30.12R WCI  29
BUFFALO        MOCLDY    38  30  73 W23G32    30.11F WCI  27
DUNKIRK        CLOUDY    38  30  73 SW13G22   30.16R WCI  30
JAMESTOWN      CLOUDY    34  25  69 W10       30.13R WCI  26
WELLSVILLE     CLOUDY    33  25  72 W13       30.10S WCI  24
ROCHESTER      CLOUDY    40  29  64 W15       30.11S WCI  32
PENN YAN       CLOUDY    39  28  64 W12G18    30.12R WCI  32
$$

             KEY
       WCI = WIND CHILL INDEX
       VSB = VISIBILITY
       HX  = HEAT INDEX
$$



USA.gov is the U.S. government's official web portal to all federal, state and local government web resources and services.